sat.trackr.live / text

‹ back to catalog

STARLINK-36496

NORAD 67329 · 2026-002AA

PAYLOAD ACTIVE UNKNOWN

§ Identity

Operator
Country
US
Launch date
2026-01-04
Launch site
AFETR
Launch vehicle
Mass (kg)
RCS (m²)

Purposes: comms

External: N2YO · Heavens-Above · Gunter

§ Orbital elements

Epoch: 2026-09-19T04:44:26.100384Z

Period
94.27 min
Inclination
42.9978°
Eccentricity
0.0001301
Mean motion
15.27593564 rev/d
Perigee alt
482.1 km
Apogee alt
483.9 km
Semi-major
6,861.1 km
B*
4.1529e-4
RAAN
312.4075°
Arg perigee
185.9855°
Mean anomaly
174.0982°
Rev number
4,065

§ Raw data

STARLINK-364961 67329U 26002AA  26262.19752431  .00011188  00000+0  41529-3 0  99992 67329  42.9978 312.4075 0001301 185.9855 174.0982 15.27593564 40659

JSON: /api/v1/satellites/67329 · /tle

For live sub-satellite position, see the globe view (requires WebGL).

§ Visibility from observer

Set your observer location to see the next 7 days of passes ≥ 10°. The values pass through the URL so the page stays shareable.

No JS? Fill the form by hand. The geolocation button needs JavaScript.